Flag for Canada Weather past 2 weeks in Chatham-Kent, Ontario, Canada

Now
42 °F

Quite cool.


Feels Like: 36 °F
Forecast: 36 / 45 °F
Wind: 10 mph from Northeast

Location: Erieau


UV Index: 5 (Moderate)

Visibility: N/A


Pressure: 30.46 "Hg

Humidity: 62%

Dew point: 30 °F

Location of Chatham-KentLocation

Historic Weather in Chatham-Kent

°F

Chatham-Kent temperature yesterday

Maximum temperature yesterday: 54 °F (at 5:00 PM)
Minimum temperature yesterday: 41 °F (at 12:00 AM)
Average temperature yesterday: 47 °F

Past Weeks' High & Low Weather Summary

 TemperatureHumidityPressure
High54 °F (Apr 18, 5:00 PM)100% (Apr 4, 2:00 PM)30.50 "Hg (Apr 4, 2:00 PM)
Low27 °F (Apr 16, 5:00 AM)39% (Apr 16, 9:00 AM)29.37 "Hg (Apr 8, 2:00 AM)
Average40 °F76%29.98 "Hg
* Reported Apr 4 10:00 AM — Apr 19 10:00 AM, Chatham-Kent, Weather by CustomWeather, © 2014

Note: Actual official high and low records may vary slightly from our data, if they occured in-between our weather recording intervals... More about our weather records

Advertising

Historic Weather Conditions — Data for Previous 24 hours

 ConditionsComfort  
Time TempWeatherWind HumidityBarometerVisibility
10:00 AM
Apr 19
40 °FQuite cool.8 mph68%30.46 "HgN/A
9:00 AM37 °FChilly.13 mph79%30.45 "HgN/A
8:00 AM35 °FChilly.10 mph82%30.45 "HgN/A
7:00 AM34 °FChilly.8 mph84%30.42 "HgN/A
6:00 AM33 °FChilly.10 mph87%30.39 "HgN/A
5:00 AM35 °FChilly.13 mph79%30.38 "HgN/A
4:00 AM36 °FChilly.14 mph77%30.37 "HgN/A
3:00 AM37 °FChilly.15 mph74%30.35 "HgN/A
2:00 AM38 °FChilly.15 mph72%30.36 "HgN/A
1:00 AM39 °FChilly.14 mph80%30.36 "HgN/A
12:00 AM40 °FQuite cool.13 mph79%30.33 "HgN/A
11:00 PM
Apr 18
46 °FCool.7 mph77%30.31 "HgN/A
10:00 PM46 °FCool.5 mph75%30.29 "HgN/A
9:00 PM47 °FCool.6 mph71%30.26 "HgN/A
8:00 PM50 °FCool.5 mph72%30.25 "HgN/A
7:00 PM50 °FCool.8 mph74%30.25 "HgN/A
6:00 PM52 °FCool.7 mph72%30.25 "HgN/A
5:00 PM54 °FCool.2 mph68%30.26 "HgN/A
4:00 PM49 °FCool.3 mph68%30.27 "HgN/A
3:00 PM50 °FCool.5 mph67%30.28 "HgN/A
2:00 PM46 °FCool.6 mph74%30.27 "HgN/A
1:00 PM44 °FQuite cool.8 mph77%30.27 "HgN/A
12:00 PM47 °FCool.5 mph70%30.27 "HgN/A
11:00 AM51 °FCool.5 mph67%30.27 "HgN/A
Weather by CustomWeather, © 2014

See weather overview